This is the latest recevied weather packets stored in our database for station/object WA7SB-7. If no packets are shown the sender has not sent any weather packets the latest 10 day(s).
| Time | Temp. | Humidity | Pressure | Rain* | Wind** | Luminosity | Snow |
|---|---|---|---|---|---|---|---|
| 1787851470 | 18.89° C | 76% | 1019.7 hPa | 0 mm | - | - | - |
| 1787851233 | 18.33° C | 76% | 1019.5 hPa | 0 mm | - | - | - |
| 1787851154 | 18.33° C | 77% | 1019.5 hPa | 0 mm | - | - | - |
| 1787850920 | 18.33° C | 76% | 1019.5 hPa | 0 mm | - | - | - |
| 1787850861 | 18.33° C | 76% | 1019.5 hPa | 0 mm | - | - | - |
| 1787850623 | 18.33° C | 77% | 1019.5 hPa | 0 mm | - | - | - |
| 1787850563 | 18.33° C | 76% | 1019.5 hPa | 0 mm | - | - | - |
| 1787850326 | 18.33° C | 78% | 1019.5 hPa | 0 mm | - | - | - |
| 1787850265 | 18.33° C | 78% | 1019.5 hPa | 0 mm | - | - | - |
| 1787850015 | 18.33° C | 77% | 1019.4 hPa | 0 mm | - | - | - |
| 1787849955 | 18.33° C | 77% | 1019.4 hPa | 0 mm | - | - | - |
| 1787849719 | 17.78° C | 78% | 1019.4 hPa | 0 mm | - | - | - |
| 1787849660 | 17.78° C | 79% | 1019.3 hPa | 0 mm | - | - | - |
| 1787849424 | 18.33° C | 77% | 1019.2 hPa | 0 mm | - | - | - |
| 1787849366 | 18.33° C | 80% | 1019.2 hPa | 0 mm | - | - | - |
| 1787849128 | 17.78° C | 80% | 1019.2 hPa | 0 mm | - | - | - |
| 1787849069 | 17.78° C | 80% | 1019.3 hPa | 0 mm | - | - | - |
| 1787848815 | 17.78° C | 81% | 1019.2 hPa | 0 mm | - | - | - |
| 1787848757 | 17.78° C | 81% | 1019.2 hPa | 0 mm | - | - | - |
| 1787848521 | 17.78° C | 81% | 1019.1 hPa | 0 mm | - | - | - |
| 1787848463 | 17.78° C | 80% | 1019.2 hPa | 0 mm | - | - | - |
| 1787848226 | 17.78° C | 82% | 1019.1 hPa | 0 mm | - | - | - |
| 1787848167 | 17.78° C | 81% | 1019.1 hPa | 0 mm | - | - | - |
| 1787847922 | 17.22° C | 84% | 1019 hPa | 0 mm | - | - | - |
| 1787847869 | 17.22° C | 83% | 1019 hPa | 0 mm | - | - | - |
* Rain latest hour (hover to see other rain measurements)
** Current wind speed in m/s (hover to see current wind gust speed)